When you browse on this site, cookies collect data to enhance your experience and personalize the content and advertising you see.
Visit our Privacy Policy to learn more. By continuing to use the site, you agree to this use of cookies and data.
  • In Österreich
  • Länderverzeichnis
  • Für 7 Tage
  • Wassertemperatur
  • Wetterkarte
  • News
  • Widgets
  • user-avatar
    Anmelden

    Stündliche Wetter Galyy Bor

    Heute, 10 Dezember, Dienstag

    Zeit Temperatur Niederschläge Wind Luftdruck Luftfeuchtigkeit
    00:00 +5°C° 0.2 mm 1 m/S 743 mmHg 91%
    01:00 +5°C° 0.2 mm 1 m/S 744 mmHg 92%
    02:00 +5°C° 0 mm 1 m/S 744 mmHg 95%
    03:00 +5°C° 0.2 mm 1 m/S 744 mmHg 95%
    04:00 +4°C° 0.2 mm 2 m/S 744 mmHg 95%
    05:00 +4°C° 0.2 mm 2 m/S 744 mmHg 95%
    06:00 +4°C° 0 mm 2 m/S 744 mmHg 95%
    07:00 +3°C° 0 mm 2 m/S 745 mmHg 95%
    08:00 +3°C° 0 mm 2 m/S 745 mmHg 95%
    09:00 +3°C° 0 mm 2 m/S 745 mmHg 92%
    10:00 +4°C° 0 mm 2 m/S 745 mmHg 89%
    11:00 +4°C° 0 mm 2 m/S 746 mmHg 86%
    12:00 +4°C° 0 mm 3 m/S 746 mmHg 84%
    13:00 +4°C° 0 mm 3 m/S 746 mmHg 83%
    14:00 +4°C° 0 mm 3 m/S 747 mmHg 81%
    15:00 +4°C° 0 mm 3 m/S 747 mmHg 84%
    16:00 +3°C° 0 mm 3 m/S 747 mmHg 87%
    17:00 +2°C° 0 mm 3 m/S 747 mmHg 90%
    18:00 +2°C° 0 mm 3 m/S 748 mmHg 87%
    19:00 +2°C° 0 mm 3 m/S 749 mmHg 84%
    20:00 +2°C° 0 mm 3 m/S 749 mmHg 81%
    21:00 +2°C° 0 mm 3 m/S 750 mmHg 83%
    22:00 +1°C° 0 mm 3 m/S 750 mmHg 85%
    23:00 0°C° 0 mm 3 m/S 750 mmHg 88%

    Morgen, 11 Dezember, Mittwoch

    Zeit Temperatur Niederschläge Wind Luftdruck Luftfeuchtigkeit
    00:00 +1°C° 0 mm 3 m/S 751 mmHg 87%
    01:00 +1°C° 0 mm 3 m/S 751 mmHg 86%
    02:00 +1°C° 0 mm 3 m/S 752 mmHg 85%
    03:00 +1°C° 0 mm 3 m/S 751 mmHg 85%
    04:00 +1°C° 0 mm 3 m/S 751 mmHg 85%
    05:00 +2°C° 0 mm 2 m/S 751 mmHg 85%
    06:00 +1°C° 0 mm 2 m/S 752 mmHg 88%
    07:00 +1°C° 0 mm 2 m/S 752 mmHg 90%
    08:00 +2°C° 0 mm 1 m/S 752 mmHg 93%
    09:00 +2°C° 0 mm 1 m/S 752 mmHg 93%
    10:00 +2°C° 0 mm 1 m/S 752 mmHg 92%
    11:00 +2°C° 0 mm 1 m/S 752 mmHg 92%
    12:00 +2°C° 0 mm 1 m/S 752 mmHg 90%
    13:00 +2°C° 0 mm 0 m/S 752 mmHg 89%
    14:00 +2°C° 0 mm 0 m/S 752 mmHg 88%
    15:00 +3°C° 0 mm 1 m/S 751 mmHg 89%
    16:00 +2°C° 0 mm 1 m/S 751 mmHg 89%
    17:00 +1°C° 0 mm 2 m/S 751 mmHg 90%
    18:00 +1°C° 0 mm 2 m/S 751 mmHg 88%
    19:00 +1°C° 0 mm 2 m/S 751 mmHg 86%
    20:00 +1°C° 0 mm 2 m/S 751 mmHg 84%
    21:00 -1°C° 0 mm 2 m/S 751 mmHg 86%
    22:00 -1°C° 0 mm 2 m/S 751 mmHg 88%
    23:00 -2°C° 0 mm 2 m/S 750 mmHg 90%

    übermorgen, 12 Dezember, Donnerstag

    Zeit Temperatur Niederschläge Wind Luftdruck Luftfeuchtigkeit
    00:00 -2°C° 0.1 mm 3 m/S 750 mmHg 91%
    01:00 -2°C° 0.1 mm 3 m/S 750 mmHg 92%
    02:00 -3°C° 0.1 mm 4 m/S 749 mmHg 94%
    03:00 -2°C° 0.3 mm 4 m/S 748 mmHg 95%
    04:00 -1°C° 0.3 mm 4 m/S 748 mmHg 96%
    05:00 0°C° 0.3 mm 4 m/S 747 mmHg 97%
    06:00 0°C° 0.2 mm 4 m/S 747 mmHg 96%
    07:00 +1°C° 0.2 mm 4 m/S 747 mmHg 96%
    08:00 +1°C° 0.2 mm 4 m/S 747 mmHg 96%
    09:00 +1°C° 0.1 mm 5 m/S 746 mmHg 93%
    10:00 +2°C° 0.1 mm 5 m/S 746 mmHg 90%
    11:00 +2°C° 0.1 mm 5 m/S 746 mmHg 87%
    12:00 +3°C° 0 mm 5 m/S 746 mmHg 85%
    13:00 +3°C° 0 mm 5 m/S 746 mmHg 83%
    14:00 +3°C° 0 mm 5 m/S 746 mmHg 81%
    15:00 +2°C° 0 mm 5 m/S 746 mmHg 83%
    16:00 +1°C° 0 mm 4 m/S 746 mmHg 86%
    17:00 +1°C° 0 mm 4 m/S 745 mmHg 88%
    18:00 +1°C° 0 mm 4 m/S 745 mmHg 89%
    19:00 0°C° 0 mm 4 m/S 745 mmHg 90%
    20:00 0°C° 0 mm 4 m/S 745 mmHg 90%
    21:00 0°C° 0 mm 4 m/S 745 mmHg 89%
    22:00 +1°C° 0 mm 5 m/S 745 mmHg 88%
    23:00 +1°C° 0 mm 5 m/S 744 mmHg 87%

    13 Dezember, Freitag

    Zeit Temperatur Niederschläge Wind Luftdruck Luftfeuchtigkeit
    00:00 +1°C° 0 mm 5 m/S 744 mmHg 86%
    01:00 +1°C° 0 mm 5 m/S 744 mmHg 85%
    02:00 +1°C° 0 mm 6 m/S 743 mmHg 85%
    03:00 +1°C° 0 mm 6 m/S 743 mmHg 85%
    04:00 +1°C° 0 mm 5 m/S 742 mmHg 85%
    05:00 +2°C° 0 mm 5 m/S 742 mmHg 85%
    06:00 +1°C° 0 mm 6 m/S 742 mmHg 84%
    07:00 +1°C° 0 mm 6 m/S 741 mmHg 84%
    08:00 +1°C° 0 mm 6 m/S 741 mmHg 83%
    09:00 +1°C° 0 mm 6 m/S 741 mmHg 83%
    10:00 +1°C° 0 mm 6 m/S 741 mmHg 82%
    11:00 0°C° 0 mm 7 m/S 741 mmHg 82%
    12:00 +1°C° 0 mm 6 m/S 740 mmHg 82%
    13:00 +1°C° 0 mm 6 m/S 740 mmHg 81%
    14:00 +1°C° 0 mm 6 m/S 740 mmHg 81%
    15:00 +1°C° 0 mm 6 m/S 740 mmHg 82%
    16:00 +1°C° 0 mm 6 m/S 740 mmHg 83%
    17:00 +1°C° 0 mm 6 m/S 740 mmHg 84%
    18:00 +1°C° 0 mm 6 m/S 740 mmHg 83%
    19:00 +1°C° 0 mm 6 m/S 740 mmHg 83%
    20:00 +1°C° 0 mm 6 m/S 740 mmHg 82%
    21:00 +1°C° 0 mm 6 m/S 740 mmHg 82%
    22:00 +1°C° 0 mm 6 m/S 740 mmHg 81%
    23:00 +1°C° 0 mm 6 m/S 740 mmHg 81%

    14 Dezember, Samstag

    Zeit Temperatur Niederschläge Wind Luftdruck Luftfeuchtigkeit
    00:00 +1°C° 0 mm 6 m/S 740 mmHg 82%
    01:00 +1°C° 0 mm 6 m/S 740 mmHg 82%
    02:00 +1°C° 0 mm 6 m/S 740 mmHg 82%
    03:00 +1°C° 0 mm 6 m/S 740 mmHg 83%
    04:00 +1°C° 0 mm 6 m/S 740 mmHg 83%
    05:00 +1°C° 0 mm 6 m/S 740 mmHg 83%
    06:00 +1°C° 0 mm 6 m/S 740 mmHg 83%
    07:00 +1°C° 0 mm 6 m/S 740 mmHg 83%
    08:00 +1°C° 0 mm 5 m/S 740 mmHg 84%
    09:00 +1°C° 0 mm 6 m/S 741 mmHg 83%
    10:00 +2°C° 0 mm 6 m/S 741 mmHg 83%
    11:00 +2°C° 0 mm 6 m/S 741 mmHg 82%
    12:00 +2°C° 0 mm 6 m/S 740 mmHg 83%
    13:00 +2°C° 0 mm 6 m/S 740 mmHg 83%
    14:00 +2°C° 0 mm 6 m/S 740 mmHg 84%
    15:00 +2°C° 0 mm 6 m/S 740 mmHg 84%
    16:00 +2°C° 0 mm 6 m/S 740 mmHg 84%
    17:00 +3°C° 0 mm 6 m/S 739 mmHg 84%
    18:00 +3°C° 0 mm 6 m/S 739 mmHg 85%
    19:00 +3°C° 0 mm 6 m/S 739 mmHg 85%
    20:00 +4°C° 0 mm 6 m/S 739 mmHg 86%
    21:00 +4°C° 0.3 mm 6 m/S 739 mmHg 87%
    22:00 +4°C° 0.3 mm 6 m/S 739 mmHg 88%
    23:00 +5°C° 0.3 mm 6 m/S 739 mmHg 89%

    15 Dezember, Sonntag

    Zeit Temperatur Niederschläge Wind Luftdruck Luftfeuchtigkeit
    00:00 +4°C° 0.1 mm 6 m/S 739 mmHg 87%
    01:00 +5°C° 0.1 mm 5 m/S 739 mmHg 85%
    02:00 +5°C° 0.1 mm 5 m/S 739 mmHg 83%
    03:00 +3°C° 0 mm 5 m/S 739 mmHg 83%
    04:00 +3°C° 0 mm 5 m/S 739 mmHg 82%
    05:00 +2°C° 0 mm 5 m/S 739 mmHg 81%
    06:00 +3°C° 0.1 mm 5 m/S 740 mmHg 81%
    07:00 +3°C° 0.1 mm 6 m/S 740 mmHg 81%
    08:00 +3°C° 0.1 mm 6 m/S 740 mmHg 81%
    09:00 +4°C° 0 mm 6 m/S 741 mmHg 78%
    10:00 +4°C° 0 mm 7 m/S 741 mmHg 76%
    11:00 +4°C° 0 mm 7 m/S 742 mmHg 73%
    12:00 +4°C° 0 mm 7 m/S 742 mmHg 69%
    13:00 +4°C° 0 mm 6 m/S 743 mmHg 65%
    14:00 +5°C° 0 mm 6 m/S 743 mmHg 60%
    15:00 +5°C° 0 mm 5 m/S 744 mmHg 64%
    16:00 +3°C° 0 mm 5 m/S 744 mmHg 68%
    17:00 +4°C° 0 mm 4 m/S 745 mmHg 73%
    18:00 +3°C° 0 mm 4 m/S 745 mmHg 74%
    19:00 +3°C° 0 mm 4 m/S 745 mmHg 76%
    20:00 +3°C° 0 mm 4 m/S 745 mmHg 77%
    21:00 +4°C° 0.1 mm 4 m/S 745 mmHg 77%
    22:00 +3°C° 0.1 mm 5 m/S 744 mmHg 76%
    23:00 +3°C° 0.1 mm 5 m/S 744 mmHg 76%
    Mehr zeigen